Погода в Мерсрагсе

Погода в Мерсрагсе : погода сейчас, прогноз погоды и архив. Всё, что Вы хотите узнать о погоде в Мерсрагсе!

Поиск расширенной информации на нашем сайте:

Другие новости

Новости СМИ2

Главная страница сайта

Новости сайта

03.07.2017

Напоминаем, что на нашем специализированном сайте Метеоцентр.Азия вы можете получить высокодетализированные автоматические прогнозы погоды по пунктам России, СНГ и мира в авиационном формате (включающие направление и скорость ветра, видимость, явления погоды, количество и форму облачности, нижнюю и верхнюю границу облачности).


Погода в Мерсрагсе - сегодня

Время (UTC), дата Ветер
(°,м/с) 
Видим.   Явления Облачность Т
(°С)
Тd
(°С)
f(%) Тe
(°С)
Pmin
(гПа)
dP
(гПа)
Po
(мм)
O2
(г/м3)
Тmin Tmax R s Состояние
почвы
09 10.12.17 180 (Ю) 4-8  н/о    н/о 
+0.5 -1.8 85 -2  998  0.2  748  301           
12 10.12.17 180 (Ю) 3-5  н/о    н/о 
+1.3 -0.9 85 997.2  -0.8  747  300           
15 10.12.17 170 (Ю) 3-5  н/о    н/о 
+1.3 -1.1 84 997.2  747  300           
18 10.12.17 180 (Ю) 3-6  н/о    н/о 
+0.5 -2.4 81 -1  997.3  747  301           
21 10.12.17 160 (Ю) 2-5  н/о    н/о 
-0.4 -2.4 86 -1  997.6  748  302           
00 11.12.17 150 (ЮВ) 2-5  н/о    н/о 
-0.6 -2.5 87 -1  996.9  -0.6  747  302           
03 11.12.17 140 (ЮВ) 2-4  н/о    н/о 
-0.7 -2.6 87 -2  996.3  747  302           
06 11.12.17 120 (ЮВ) 3-9  н/о    н/о 
+0.2 -2.5 82 -2  996.2  -0.2  747  301           
09 11.12.17 130 (ЮВ) 3-8  н/о    н/о 
-0.1 -3.5 78 -2  996.7  0.5  747  301           
12 11.12.17 120 (ЮВ) 3-7  н/о    н/о 
+0.2 -3 79 -2  995.9  -0.8  746  301           
15 11.12.17 130 (ЮВ) 3-7  н/о    н/о 
+0.5 -2.1 83 -1  997  747  301           
18 11.12.17 130 (ЮВ) 3-7  н/о    н/о 
+0.9 -1.4 85 -1  997.7  0.7  748  300           
21 11.12.17 150 (ЮВ) 2-5  н/о    н/о 
+1.4 -0.1 90 +1  997.5  -0.3  748  300           
00 12.12.17 130 (ЮВ) 2-7  н/о    н/о 
+1.9 +0.1 88 +1  996.4  -1  747  299           
03 12.12.17 130 (ЮВ) 4-8  н/о    н/о 
+2.3 +0.2 86 993.4  745  297           
06 12.12.17 140 (ЮВ) 3-8  н/о    н/о 
+2.3 +1.3 93 +1  990.8  -2.6  743  296           
12 12.12.17 170 (Ю) 4-7  н/о    н/о 
+3.5 +2.9 96 +2  988  -1.4  740  294           
15 12.12.17 190 (Ю) 4-7  н/о    н/о 
+6.2 +5.3 94 +5  988.6  741  291           
21 12.12.17 190 (Ю) 5-8  н/о    н/о 
+4.8 +3.5 91 +3  990.8  743  293           
00 13.12.17 230 (ЮЗ) 4-7  н/о    н/о 
+2.4 +1.7 95 993  2.2  744  297           
03 13.12.17 240 (ЮЗ) 4-6  н/о    н/о 
+1.2 +0.3 94 -1  999.5  6.5  749  300           
06 13.12.17 210 (ЮЗ) 2-4  н/о    н/о 
-0.1 -1 94 -1  1003.5  752  303           
09 13.12.17 190 (Ю) 3-6  н/о    н/о 
+0.2 -1.3 90 -2  1005  753  303           
12 13.12.17 200 (Ю) 4-6  н/о    н/о 
+1.5 +0.5 93 -1  1004.6  -0.3  753  302           
15 13.12.17 200 (Ю) 4-7  н/о    н/о 
+2 +0.8 92 1005.1  0.5  753  301           
Время (UTC), дата Ветер
(°,м/с) 
Видим.   Явления Облачность Т
(°С)
Тd
(°С)
f(%) Тe
(°С)
Pmin
(гПа)
dP
(гПа)
Po
(мм)
O2
(г/м3)
Тmin Tmax R s Состояние
почвы

Для получения пояснительной информации подведите курсор к названию столбца.

ПОГОДА в Мерсрагсе - архив

Всё, что Вы хотите узнать о погоде в Мерсрагсе - удобно и подробно!

Выберите нужную дату (начиная с 1 января 2015* года) и нажмите кнопку "Найти".
Будут отображены архивные сводки погоды по пункту Мерсрагс, начиная с указанной даты.


Отображать данные в формате CSV (для использования в таблицах Excel)


Внимание! Наш архив погоды предназначен исключительно для личного некоммерческого использования в познавательных целях. Если Вам необходимы официальные справки о состоянии погоды (для производственных, юридических, коммерческих и т.п. целей), обращайтесь в органы Росгидромета.

*Примечание: данная дата относится к архиву по метеостанциям СССР (Россия, СНГ, Балтия).
Архив по метеостанциям Зарубежной Европы и Азии (кроме Китая) хранится 10 дней, по другим регионам земного шара (Китай, Африка, Америка, Австралия, Океания) - 1 день.

Мерсрагс - район местоположения метеостанции


Название, широта, долгота, высота метеостанции:
Мерсрагс 57.3°ш. 23.1°д. 6 м над ур. моря [Латвия]

Дополнительная информация

В oтличие oт бoльшинства пoгoдных сайтoв мы публикуем пoдрoбную метеoинфoрмацию в детальнoм прoфессиoнальнoм фoрмате.

Характеристики температуры и влажнoсти вoздуха измеряются на высoте 2 м в тени вдали oт зданий и деревьев.
Скoрoсть ветра измеряется на высoте 10 м (на урoвне рoста челoвека скoрoсть ветра ниже в 1.5-2 раза). Если метеoстанция нахoдится в гoрoде или в лесу, тo скoрoсть ветра занижена на 2-4 м/с пo сравнению с oткрытым местoм. Скoрoсть ветра над акватoриями крупных рек и oзёр, а также на вершинах хoлмoв на 2-5 м/с выше, чем в oбычных услoвиях.
Атмoсфернoе давление в разных тoчках местнoсти мoжет значительнo oтличаться oт давления на метеoстанции, в зависимoсти oт услoвий рельефа (при пoдъёме на 10 м давление пoнижается примернo на 1 мм рт.ст.).